Terminal Aerodrome Forecast
Issued by NWS Pendleton, OR

Home | Current Version | Previous Version | Text Only | Print | Product List | Glossary On
Versions: 1 2 3 4 5 6 7 8 9 10 11 12
000
FTUS46 KPDT 131100
TAFPDT
TAF
KPDT 131120Z 1312/1412 11006KT P6SM SCT250
     FM131700 35008KT P6SM SCT120 BKN250
     FM140100 34007KT P6SM BKN120
     FM140300 33010KT P6SM -TSRA SCT100CB BKN120
     FM140600 16008KT P6SM -SHRA SCT080 BKN120=

USA.gov is the U.S. government's official web portal to all federal, state and local government web resources and services.